Regional Weather Roundup
Issued by NWS

Home | Current Version | Previous Version | Graphics & Text | Print | Product List | Glossary On
Versions: 1 2 3 4 5 6 7 8 9 10 11 12 13 14 15 16 17 18 19 20 21 22 23 24 25 26 27 28 29 30 31 32 33 34 35 36 37 38 39 40 41 42 43 44 45 46 47 48 49 50
697
ASUS45 KBOU 180110
RWRCO

WEATHER ROUNDUP FOR COLORADO
NATIONAL WEATHER SERVICE DENVER/BOULDER CO
600 PM MST WED JAN 17 2018

NOTE: "FAIR" INDICATES FEW OR NO CLOUDS BELOW 12000 FEET WITH NO
SIGNIFICANT WEATHER AND/OR OBSTRUCTIONS TO VISIBILITY.

COZ001>005-013-030-031-180200-
...NORTHWEST COLORADO...

CITY           SKY/WX    TMP DP  RH WIND       PRES   REMARKS
CRAIG          FAIR      23  10  57 SE5       30.36S WCI  17
HAYDEN         FAIR     N/A N/A N/A E7        30.37S
MEEKER         FAIR      30  21  69 NE6       30.34R WCI  24
RABBIT EARS PA FAIR      19  16  86 W7        30.36R WCI  10
STEAMBOAT SPGS FAIR      24  10  54 CALM      30.37R
WALDEN         FAIR      23   9  54 S5        30.35R WCI  17
$$

COZ006>008-011-180200-
...WEST CENTRAL VALLEYS...

CITY           SKY/WX    TMP DP  RH WIND       PRES   REMARKS
GRAND JUNCTION FAIR      32  14  47 N3        30.35R
MONTROSE       FAIR      34   9  35 NE3       30.36S
EAGLE          FAIR      28   8  43 E5        30.39R WCI  23
RIFLE          FAIR      34  13  41 S5        30.34S WCI  30
DELTA          FAIR      41  10  27 CALM      30.35S
NUCLA          FAIR      41  10  28 CALM      30.36R
$$

COZ017>023-064>068-180200-
...SOUTHWEST COLORADO...

CITY           SKY/WX    TMP DP  RH WIND       PRES   REMARKS
DURANGO        FAIR      35  19  52 W5        30.29R WCI  31
CORTEZ         FAIR      32  18  56 CALM      30.31R
PAGOSA SPRINGS FAIR      32  16  52 CALM      30.31R
TELLURIDE      FAIR      32  11  41 CALM      30.37R
WOLF CREEK PAS FAIR      25 -15  17 N6        30.42R WCI  18
$$

COZ009-010-012-014-032>034-037-058>063-180200-
...CENTRAL COLORADO...

CITY           SKY/WX    TMP DP  RH WIND       PRES   REMARKS
ASPEN          FAIR      24  11  57 S6        30.34S WCI  17
BUENA VISTA    FAIR      34   7  32 W8        30.29R WCI  28
COPPER MTN     NOT AVBL
BERTHOUD PASS  FAIR      16   5  62 NW22G30   30.36S WCI  -2
COTTONWOOD PAS   N/A     39   3  22 W6        30.34R
GUNNISON       FAIR      22   8  55 CALM      30.36R
KREMMLING      FAIR      21   9  58 CALM      30.41R
LEADVILLE      FAIR      24  11  57 NE5       30.34S WCI  18
MONARCH PASS   FAIR      25  -4  28 SW9       30.48S WCI  15
SALIDA         FAIR      39  -1  18 W10       30.37R
SUNLIGHT       FAIR      25  14  63 E3        30.42S
WILKERSON PASS FAIR      28 -13  16 E3        30.39S
$$

COZ069>075-180200-
...SAN LUIS VALLEY/SANGRE DE CRISTO MOUNTAINS...

CITY           SKY/WX    TMP DP  RH WIND       PRES   REMARKS
ALAMOSA        FAIR      26  -1  31 CALM      30.28R
DEL NORTE      FAIR      28   2  34 CALM      30.30R
LA VETA PASS   FAIR      27  -6  24 NE10        N/A  WCI  17
SAGUACHE       FAIR      25   5  42 N8        30.31R WCI  16
$$

COZ035-036-038>040-180200-
...NORTHERN COLORADO FRONT RANGE...

CITY           SKY/WX    TMP DP  RH WIND       PRES   REMARKS
DENVER INTL AP FAIR      40  12  32 SE7       30.27S
DMNS CITY PARK NOT AVBL
AURORA         CLEAR     35  12  38 SE9       30.28R WCI  28
FRONT RANGE AP CLEAR     41  14  33 SE5       30.28R
ERIE MUNI ARPT FAIR      32  12  43 CALM      30.32S
BOULDER MUN AP FAIR      39  10  30 S3        30.26S
CENTENNIAL     FAIR      41   9  26 SE5       30.27S
BROOMFIELD     CLEAR     43   0  16 CALM      30.27S
FORT COLLINS   FAIR      40  14  34 SE7       30.26S
LONGMONT       FAIR      32  15  49 W6        30.28S WCI  27
$$

COZ041-046-047-076>085-087-088-180200-
...PIKES PEAK/PALMER DIVIDE AND SOUTHERN FOOTHILLS...

CITY           SKY/WX    TMP DP  RH WIND       PRES   REMARKS
COLO. SPRINGS  FAIR      39   5  24 NE3       30.30R
A. F. ACADEMY  FAIR      29   1  29 N5        30.29R WCI  24
SCHRIEVER AFB  FAIR      35   5  27 CALM      30.30R
CHEYENNE MTN   FAIR      37   4  24 SW3       30.25R
ELLICOTT         N/A    N/A N/A N/A E9        30.28R
FALCON         FAIR      33   5  31 N6        30.30R WCI  27
FORT CARSON    FAIR      40   4  22 SE3       30.28R
LIMON          FAIR      21   9  59 N5        30.28R WCI  15
MONUMENT HILL  FAIR      27  10  50 S5        30.32R WCI  21
CANON CITY     FAIR      41   1  19 CALM      30.27R
WALSENBURG     FAIR      28  14  54 SW3       30.28R
TRINIDAD       FAIR      40  10  29 NE6       30.28R
$$

COZ042>045-048>051-090-091-180200-
...NORTHEAST COLORADO...

CITY           SKY/WX    TMP DP  RH WIND       PRES   REMARKS
GREELEY ARPT   FAIR      35  17  47 E5        30.27S WCI  31
AKRON          FAIR      28  15  58 N5        30.26R WCI  23
BURLINGTON     FAIR      30   9  41 W5        30.26R WCI  25
WRAY           FAIR      36  19  51 CALM      30.26R
YUMA           FAIR      30   9  40 N5        30.26R WCI  25
STERLING       FAIR      36  19  51 N5        30.26R
HOLYOKE        FAIR      34  19  55 N6        30.27R WCI  29
FORT MORGAN    FAIR      36  14  41 CALM      30.28R
$$

COZ086-089-092>099-180200-
...SOUTHEAST COLORADO...

CITY           SKY/WX    TMP DP  RH WIND       PRES   REMARKS
PUEBLO         FAIR      41  12  30 E3        30.27R
LA JUNTA       FAIR      42  12  29 SE3       30.26S
LAMAR          FAIR      22   5  48 S6        30.25S WCI  14
SPRINGFIELD      N/A     30  10  43 SE3       30.27R
$$




USA.gov is the U.S. government's official web portal to all federal, state and local government web resources and services.